QPF
0.00 0.00 0.00 0.00 0.00 0.00 0.00 0.00 0.01 0.00 0.00 0.00 0.00 0.00 0.00 0.01 0.02 0.04 0.04 0.05 0.05 0.03 0.03 0.04 0.05 0.05 0.06 0.06 0.06 0.05 0.04 0.03 0.02 0.02 0.01 0.01 0.02 0.04
0.02 0.01 0.00 0.00 0.00 0.00 0.00 0.00 0.00 0.01 0.01 0.00 0.01 0.00 0.00 0.01 0.02 0.03 0.03 0.04 0.04 0.03 0.03 0.03 0.03 0.04 0.05 0.05 0.04 0.04 0.03 0.03 0.02 0.01 0.01 0.01 0.01 0.01
0.06 0.03 0.01 0.01 0.00 0.00 0.00 0.00 0.00 0.01 0.01 0.01 0.01 0.01 0.01 0.01 0.01 0.02 0.02 0.02 0.02 0.03 0.03 0.04 0.03 0.02 0.02 0.03 0.03 0.03 0.02 0.02 0.02 0.01 0.01 0.00 0.00 0.01
0.11 0.07 0.04 0.03 0.01 0.00 0.00 0.00 0.00 0.00 0.01 0.01 0.01 0.02 0.02 0.02 0.01 0.02 0.02 0.02 0.01 0.02 0.03 0.03 0.03 0.02 0.01 0.01 0.01 0.01 0.01 0.00 0.00 0.00 0.00 0.00 0.00 0.01
0.18 0.13 0.09 0.06 0.03 0.02 0.01 0.00 0.00 0.00 0.01 0.01 0.01 0.02 0.04 0.04 0.03 0.03 0.03 0.02 0.01 0.02 0.02 0.02 0.01 0.01 0.01 0.00 0.00 0.00 0.00 0.00 0.00 0.00 0.00 0.00 0.00 0.00
0.18 0.19 0.17 0.11 0.07 0.04 0.02 0.01 0.00 0.00 0.01 0.02 0.02 0.03 0.06 0.06 0.04 0.04 0.04 0.03 0.02 0.01 0.01 0.01 0.01 0.00 0.00 0.00 0.00 0.00 0.00 0.00 0.00 0.00 0.00 0.00 0.00 0.00
0.10 0.13 0.16 0.18 0.14 0.08 0.03 0.01 0.00 0.00 0.01 0.02 0.03 0.04 0.06 0.08 0.07 0.05 0.04 0.04 0.03 0.02 0.01 0.00 0.00 0.00 0.00 0.00 0.00 0.00 0.00 0.00 0.00 0.00 0.00 0.00 0.00 0.00
0.03 0.07 0.10 0.13 0.13 0.12 0.07 0.03 0.01 0.00 0.01 0.02 0.03 0.03 0.04 0.04 0.03 0.02 0.03 0.03 0.04 0.03 0.01 0.00 0.00 0.00 0.00 0.00 0.00 0.00 0.00 0.00 0.00 0.00 0.00 0.00 0.00 0.00
0.01 0.02 0.05 0.09 0.10 0.09 0.08 0.05 0.02 0.01 0.00 0.01 0.02 0.02 0.03 0.02 0.02 0.02 0.03 0.02 0.02 0.02 0.01 0.01 0.00 0.00 0.00 0.00 0.00 0.00 0.00 0.00 0.00 0.00 0.00 0.00 0.00 0.00
0.00 0.01 0.02 0.05 0.07 0.08 0.07 0.05 0.03 0.02 0.01 0.01 0.02 0.03 0.03 0.03 0.03 0.03 0.03 0.03 0.02 0.02 0.01 0.01 0.01 0.00 0.00 0.00 0.00 0.00 0.00 0.00 0.00 0.00 0.00 0.00 0.00 0.00
0.00 0.01 0.02 0.03 0.06 0.07 0.07 0.04 0.03 0.03 0.02 0.02 0.04 0.06 0.07 0.07 0.06 0.05 0.05 0.04 0.03 0.02 0.01 0.00 0.00 0.00 0.00 0.00 0.00 0.00 0.00 0.00 0.00 0.00 0.00 0.00 0.00 0.00
0.00 0.02 0.04 0.05 0.07 0.07 0.07 0.05 0.02 0.02 0.03 0.03 0.06 0.10 0.10 0.10 0.09 0.06 0.05 0.04 0.02 0.02 0.01 0.00 0.00 0.00 0.00 0.00 0.00 0.00 0.00 0.00 0.00 0.00 0.00 0.00 0.00 0.00
0.01 0.03 0.05 0.08 0.10 0.09 0.09 0.07 0.04 0.03 0.03 0.04 0.07 0.11 0.13 0.12 0.09 0.08 0.07 0.04 0.02 0.01 0.00 0.00 0.00 0.00 0.00 0.00 0.00 0.00 0.00 0.00 0.00 0.00 0.00 0.00 0.00 0.00
0.01 0.03 0.06 0.11 0.15 0.15 0.13 0.10 0.08 0.06 0.05 0.06 0.08 0.11 0.13 0.13 0.10 0.09 0.08 0.05 0.02 0.01 0.01 0.00 0.00 0.00 0.00 0.00 0.00 0.00 0.00 0.00 0.00 0.00 0.00 0.00 0.00 0.00
0.01 0.04 0.08 0.14 0.23 0.23 0.22 0.18 0.11 0.08 0.08 0.07 0.08 0.08 0.08 0.08 0.08 0.07 0.06 0.04 0.02 0.01 0.01 0.00 0.00 0.00 0.00 0.00 0.00 0.00 0.00 0.00 0.00 0.00 0.00 0.00 0.00 0.00
0.01 0.04 0.09 0.18 0.30 0.36 0.32 0.25 0.15 0.10 0.10 0.07 0.07 0.07 0.07 0.07 0.07 0.05 0.04 0.03 0.02 0.01 0.00 0.00 0.00 0.00 0.00 0.00 0.00 0.00 0.00 0.00 0.00 0.00 0.00 0.00 0.00 0.00
0.01 0.03 0.09 0.22 0.36 0.43 0.41 0.33 0.23 0.16 0.12 0.09 0.08 0.08 0.07 0.07 0.07 0.05 0.03 0.02 0.01 0.01 0.00 0.00 0.00 0.00 0.00 0.00 0.00 0.00 0.00 0.00 0.00 0.00 0.00 0.00 0.00 0.00
0.01 0.03 0.09 0.22 0.36 0.45 0.46 0.39 0.30 0.21 0.12 0.08 0.08 0.08 0.06 0.05 0.05 0.04 0.03 0.02 0.01 0.01 0.00 0.00 0.00 0.00 0.00 0.00 0.00 0.00 0.00 0.00 0.00 0.00 0.00 0.00 0.00 0.00
0.01 0.04 0.10 0.20 0.34 0.44 0.46 0.38 0.30 0.22 0.12 0.07 0.07 0.06 0.05 0.04 0.03 0.03 0.02 0.02 0.01 0.01 0.01 0.00 0.00 0.00 0.00 0.00 0.00 0.00 0.00 0.00 0.00 0.00 0.00 0.00 0.00 0.00
0.01 0.04 0.11 0.20 0.32 0.43 0.45 0.39 0.31 0.22 0.11 0.06 0.05 0.04 0.03 0.02 0.02 0.01 0.01 0.01 0.00 0.00 0.00 0.00 0.00 0.00 0.00 0.00 0.00 0.00 0.00 0.00 0.00 0.00 0.00 0.00 0.00 0.00
0.03 0.06 0.11 0.19 0.29 0.38 0.41 0.36 0.30 0.19 0.07 0.03 0.03 0.02 0.01 0.01 0.01 0.01 0.00 0.00 0.00 0.00 0.00 0.00 0.00 0.00 0.00 0.00 0.00 0.00 0.00 0.00 0.00 0.00 0.00 0.00 0.00 0.00
0.06 0.08 0.12 0.18 0.25 0.31 0.33 0.28 0.24 0.14 0.04 0.01 0.01 0.01 0.00 0.00 0.00 0.00 0.00 0.00 0.00 0.00 0.00 0.00 0.00 0.00 0.00 0.00 0.00 0.00 0.00 0.00 0.00 0.00 0.00 0.00 0.00 0.00
0.08 0.10 0.12 0.16 0.20 0.22 0.21 0.17 0.13 0.07 0.02 0.01 0.00 0.00 0.00 0.00 0.00 0.00 0.00 0.00 0.00 0.00 0.00 0.00 0.00 0.00 0.00 0.00 0.00 0.00 0.00 0.00 0.00 0.00 0.00 0.00 0.00 0.00
MSLP
1009.14 1009.42 1009.76 1010.14 1010.50 1010.81 1011.04 1011.17 1011.19 1011.13 1010.99 1010.81 1010.62 1010.45 1010.31 1010.22 1010.18 1010.20 1010.26 1010.37 1010.50 1010.65 1010.82 1010.98 1011.14 1011.30 1011.47 1011.66 1011.86 1012.10 1012.36 1012.65 1012.96 1013.28 1013.59 1013.86 1014.09 1014.27
1008.69 1008.93 1009.24 1009.58 1009.93 1010.25 1010.51 1010.68 1010.77 1010.79 1010.75 1010.68 1010.60 1010.54 1010.51 1010.52 1010.58 1010.67 1010.80 1010.95 1011.11 1011.27 1011.42 1011.56 1011.70 1011.83 1011.95 1012.09 1012.25 1012.44 1012.66 1012.90 1013.17 1013.44 1013.70 1013.93 1014.12 1014.26
1008.32 1008.51 1008.76 1009.07 1009.39 1009.69 1009.95 1010.15 1010.30 1010.39 1010.45 1010.49 1010.54 1010.62 1010.72 1010.86 1011.03 1011.23 1011.44 1011.65 1011.85 1012.03 1012.18 1012.30 1012.41 1012.50 1012.58 1012.68 1012.79 1012.93 1013.10 1013.31 1013.54 1013.77 1014.00 1014.21 1014.38 1014.50
1007.99 1008.14 1008.35 1008.60 1008.88 1009.15 1009.39 1009.60 1009.78 1009.93 1010.07 1010.22 1010.40 1010.61 1010.86 1011.14 1011.45 1011.76 1012.07 1012.36 1012.61 1012.82 1012.99 1013.10 1013.19 1013.24 1013.29 1013.34 1013.41 1013.52 1013.65 1013.83 1014.03 1014.25 1014.47 1014.67 1014.84 1014.96
1007.67 1007.79 1007.96 1008.17 1008.40 1008.62 1008.83 1009.03 1009.22 1009.40 1009.61 1009.85 1010.13 1010.47 1010.85 1011.27 1011.72 1012.16 1012.58 1012.96 1013.28 1013.55 1013.74 1013.87 1013.95 1013.99 1014.02 1014.04 1014.09 1014.16 1014.28 1014.43 1014.62 1014.83 1015.05 1015.26 1015.45 1015.59
1007.32 1007.42 1007.57 1007.74 1007.93 1008.11 1008.28 1008.44 1008.61 1008.81 1009.04 1009.34 1009.70 1010.14 1010.64 1011.19 1011.76 1012.33 1012.87 1013.35 1013.77 1014.10 1014.35 1014.53 1014.63 1014.69 1014.72 1014.74 1014.78 1014.84 1014.95 1015.09 1015.28 1015.49 1015.72 1015.95 1016.15 1016.32
1006.91 1007.02 1007.16 1007.30 1007.45 1007.58 1007.70 1007.83 1007.96 1008.14 1008.38 1008.70 1009.11 1009.61 1010.20 1010.85 1011.53 1012.22 1012.88 1013.49 1014.01 1014.44 1014.78 1015.02 1015.19 1015.29 1015.36 1015.41 1015.46 1015.54 1015.65 1015.79 1015.98 1016.20 1016.43 1016.67 1016.90 1017.09
1006.45 1006.57 1006.70 1006.83 1006.94 1007.03 1007.11 1007.18 1007.27 1007.41 1007.62 1007.94 1008.36 1008.91 1009.55 1010.28 1011.06 1011.86 1012.63 1013.36 1014.00 1014.54 1014.99 1015.34 1015.59 1015.78 1015.91 1016.01 1016.11 1016.22 1016.35 1016.50 1016.69 1016.91 1017.15 1017.39 1017.62 1017.83
1005.96 1006.09 1006.22 1006.33 1006.41 1006.47 1006.49 1006.51 1006.55 1006.64 1006.82 1007.11 1007.53 1008.08 1008.77 1009.55 1010.41 1011.29 1012.17 1013.01 1013.77 1014.44 1015.01 1015.47 1015.84 1016.13 1016.35 1016.53 1016.69 1016.84 1017.01 1017.18 1017.38 1017.59 1017.82 1018.05 1018.28 1018.48
1005.45 1005.59 1005.72 1005.82 1005.88 1005.89 1005.88 1005.84 1005.83 1005.87 1006.01 1006.27 1006.67 1007.23 1007.93 1008.76 1009.66 1010.62 1011.59 1012.52 1013.40 1014.18 1014.87 1015.45 1015.94 1016.33 1016.66 1016.93 1017.16 1017.37 1017.57 1017.77 1017.98 1018.19 1018.40 1018.62 1018.82 1019.01
1004.96 1005.11 1005.24 1005.33 1005.36 1005.34 1005.29 1005.21 1005.16 1005.16 1005.26 1005.50 1005.89 1006.45 1007.16 1008.01 1008.95 1009.96 1010.99 1012.00 1012.95 1013.83 1014.61 1015.30 1015.89 1016.39 1016.81 1017.16 1017.47 1017.74 1017.99 1018.22 1018.44 1018.65 1018.85 1019.04 1019.23 1019.39
1004.52 1004.68 1004.80 1004.87 1004.89 1004.84 1004.75 1004.64 1004.56 1004.54 1004.63 1004.86 1005.25 1005.81 1006.53 1007.40 1008.37 1009.40 1010.46 1011.51 1012.52 1013.45 1014.29 1015.05 1015.71 1016.28 1016.78 1017.21 1017.58 1017.91 1018.20 1018.46 1018.70 1018.92 1019.12 1019.31 1019.48 1019.63
1004.15 1004.31 1004.42 1004.47 1004.46 1004.39 1004.27 1004.15 1004.06 1004.04 1004.13 1004.37 1004.78 1005.36 1006.11 1006.98 1007.96 1009.01 1010.07 1011.13 1012.14 1013.08 1013.94 1014.72 1015.41 1016.02 1016.57 1017.05 1017.47 1017.85 1018.18 1018.48 1018.75 1018.99 1019.21 1019.40 1019.58 1019.73
1003.83 1003.99 1004.09 1004.12 1004.09 1003.99 1003.86 1003.74 1003.65 1003.66 1003.78 1004.06 1004.50 1005.12 1005.89 1006.78 1007.76 1008.79 1009.84 1010.86 1011.84 1012.75 1013.58 1014.34 1015.02 1015.64 1016.20 1016.70 1017.16 1017.57 1017.94 1018.28 1018.59 1018.86 1019.11 1019.33 1019.53 1019.71
1003.54 1003.70 1003.79 1003.80 1003.74 1003.63 1003.50 1003.39 1003.33 1003.38 1003.56 1003.89 1004.39 1005.05 1005.85 1006.76 1007.73 1008.74 1009.75 1010.72 1011.63 1012.47 1013.24 1013.95 1014.59 1015.17 1015.71 1016.21 1016.68 1017.12 1017.53 1017.91 1018.25 1018.57 1018.86 1019.12 1019.36 1019.58
1003.27 1003.42 1003.49 1003.48 1003.41 1003.29 1003.17 1003.08 1003.07 1003.18 1003.43 1003.83 1004.40 1005.11 1005.95 1006.87 1007.83 1008.81 1009.76 1010.66 1011.49 1012.25 1012.94 1013.56 1014.14 1014.67 1015.18 1015.67 1016.13 1016.58 1017.02 1017.43 1017.81 1018.17 1018.51 1018.81 1019.10 1019.36
1002.98 1003.12 1003.18 1003.15 1003.06 1002.95 1002.85 1002.81 1002.86 1003.03 1003.36 1003.84 1004.48 1005.25 1006.12 1007.05 1008.00 1008.94 1009.83 1010.66 1011.41 1012.07 1012.68 1013.22 1013.73 1014.21 1014.68 1015.14 1015.59 1016.05 1016.50 1016.93 1017.35 1017.74 1018.11 1018.45 1018.77 1019.06
1002.66 1002.79 1002.82 1002.79 1002.71 1002.61 1002.55 1002.56 1002.67 1002.93 1003.33 1003.89 1004.59 1005.41 1006.31 1007.24 1008.18 1009.08 1009.92 1010.68 1011.35 1011.95 1012.48 1012.96 1013.41 1013.84 1014.27 1014.71 1015.15 1015.60 1016.05 1016.50 1016.93 1017.34 1017.72 1018.07 1018.40 1018.70
1002.32 1002.42 1002.45 1002.41 1002.35 1002.29 1002.27 1002.34 1002.53 1002.86 1003.34 1003.96 1004.72 1005.57 1006.48 1007.41 1008.33 1009.19 1009.98 1010.69 1011.31 1011.86 1012.34 1012.77 1013.19 1013.59 1014.00 1014.42 1014.85 1015.29 1015.74 1016.17 1016.59 1016.99 1017.36 1017.71 1018.02 1018.30
1001.98 1002.06 1002.07 1002.05 1002.01 1001.99 1002.04 1002.18 1002.44 1002.84 1003.38 1004.06 1004.85 1005.72 1006.63 1007.54 1008.43 1009.26 1010.02 1010.69 1011.28 1011.79 1012.25 1012.67 1013.07 1013.46 1013.86 1014.27 1014.69 1015.12 1015.54 1015.96 1016.35 1016.71 1017.05 1017.34 1017.61 1017.84
1001.65 1001.71 1001.72 1001.72 1001.72 1001.76 1001.88 1002.09 1002.42 1002.89 1003.48 1004.19 1004.99 1005.86 1006.76 1007.65 1008.50 1009.30 1010.02 1010.67 1011.24 1011.75 1012.20 1012.63 1013.03 1013.43 1013.83 1014.24 1014.64 1015.05 1015.44 1015.81 1016.16 1016.47 1016.74 1016.97 1017.17 1017.33
1001.38 1001.42 1001.44 1001.47 1001.52 1001.62 1001.81 1002.09 1002.49 1003.00 1003.63 1004.36 1005.16 1006.01 1006.87 1007.73 1008.54 1009.31 1010.00 1010.63 1011.20 1011.70 1012.17 1012.61 1013.02 1013.43 1013.84 1014.23 1014.62 1015.00 1015.35 1015.67 1015.96 1016.20 1016.40 1016.56 1016.68 1016.76
1001.18 1001.21 1001.25 1001.31 1001.41 1001.58 1001.83 1002.18 1002.63 1003.18 1003.83 1004.56 1005.34 1006.16 1006.99 1007.80 1008.57 1009.30 1009.97 1010.58 1011.14 1011.65 1012.12 1012.57 1013.00 1013.41 1013.81 1014.19 1014.56 1014.89 1015.20 1015.46 1015.69 1015.86 1015.99 1016.08 1016.12 1016.14
Thickness
5672 5675 5677 5679 5680 5682 5683 5684 5683 5684 5688 5693 5697 5699 5698 5696 5695 5694 5693 5693 5694 5695 5696 5696 5697 5698 5697 5696 5695 5694 5695 5696 5698 5700 5702 5705 5707 5709
5663 5665 5669 5672 5674 5676 5678 5679 5680 5681 5681 5686 5689 5691 5691 5690 5687 5686 5684 5683 5684 5685 5686 5687 5688 5689 5688 5688 5687 5687 5687 5689 5690 5692 5695 5697 5700 5703
5652 5656 5660 5663 5666 5669 5671 5673 5675 5677 5677 5680 5682 5684 5684 5682 5680 5677 5675 5674 5673 5673 5675 5677 5678 5679 5679 5679 5679 5679 5680 5681 5682 5684 5686 5689 5692 5695
5640 5644 5649 5652 5656 5660 5663 5666 5669 5672 5673 5674 5676 5677 5677 5676 5673 5669 5667 5664 5662 5662 5663 5665 5667 5669 5670 5670 5671 5671 5672 5673 5674 5675 5678 5680 5681 5684
5625 5631 5637 5641 5646 5651 5655 5659 5662 5666 5668 5668 5669 5671 5671 5669 5666 5662 5658 5654 5652 5650 5651 5653 5656 5658 5660 5661 5662 5662 5663 5663 5664 5665 5667 5668 5669 5671
5610 5617 5624 5630 5636 5641 5646 5650 5654 5658 5661 5663 5664 5665 5665 5663 5661 5655 5649 5645 5642 5641 5641 5642 5644 5647 5649 5650 5652 5652 5653 5653 5654 5655 5656 5657 5657 5658
5594 5603 5610 5618 5625 5631 5637 5642 5646 5651 5654 5657 5659 5660 5660 5658 5656 5651 5645 5638 5633 5631 5631 5632 5634 5636 5637 5639 5641 5642 5642 5643 5643 5644 5644 5644 5645 5646
5577 5587 5596 5604 5613 5621 5628 5635 5640 5645 5650 5653 5656 5658 5658 5657 5653 5647 5641 5634 5628 5623 5624 5621 5624 5625 5626 5628 5629 5631 5632 5632 5632 5632 5632 5633 5633 5634
5561 5570 5582 5593 5601 5610 5618 5624 5632 5640 5646 5651 5654 5657 5657 5656 5651 5643 5638 5634 5629 5621 5619 5614 5614 5615 5616 5616 5618 5620 5621 5621 5621 5621 5622 5622 5622 5623
5548 5557 5567 5578 5586 5597 5606 5615 5625 5633 5639 5645 5651 5654 5655 5654 5651 5645 5636 5626 5620 5615 5616 5611 5607 5606 5606 5606 5607 5609 5610 5611 5611 5611 5612 5612 5612 5613
5540 5546 5554 5565 5576 5586 5597 5608 5617 5625 5632 5639 5644 5647 5649 5648 5645 5637 5629 5624 5616 5610 5609 5607 5602 5599 5598 5597 5598 5599 5601 5601 5602 5602 5603 5603 5604 5605
5533 5538 5545 5554 5564 5574 5587 5600 5610 5620 5626 5632 5636 5639 5641 5642 5641 5639 5634 5626 5618 5609 5606 5605 5601 5600 5593 5590 5590 5591 5592 5592 5593 5594 5595 5596 5597 5598
5528 5532 5537 5544 5553 5563 5576 5591 5604 5612 5619 5626 5631 5634 5635 5635 5633 5632 5631 5628 5622 5616 5610 5606 5601 5600 5599 5591 5587 5586 5586 5587 5587 5587 5588 5589 5591 5592
5525 5528 5532 5537 5544 5553 5566 5581 5592 5602 5612 5620 5626 5629 5631 5630 5628 5625 5623 5621 5619 5617 5611 5608 5603 5600 5598 5592 5587 5583 5581 5582 5582 5583 5583 5584 5585 5586
5522 5525 5528 5531 5537 5546 5558 5571 5583 5596 5608 5616 5622 5625 5626 5625 5620 5616 5612 5610 5608 5606 5603 5603 5602 5598 5597 5594 5589 5584 5581 5579 5579 5580 5581 5581 5582 5583
5517 5520 5523 5526 5532 5540 5552 5564 5577 5592 5603 5611 5615 5616 5616 5615 5613 5611 5608 5605 5600 5596 5594 5595 5595 5595 5593 5590 5588 5584 5582 5581 5579 5578 5579 5579 5579 5580
5514 5516 5519 5523 5529 5537 5548 5560 5572 5585 5595 5603 5606 5608 5609 5608 5606 5604 5603 5600 5598 5594 5589 5586 5586 5586 5587 5587 5584 5582 5580 5579 5578 5577 5577 5578 5578 5578
5510 5515 5517 5521 5527 5535 5547 5557 5568 5580 5590 5597 5601 5603 5603 5602 5599 5597 5596 5595 5593 5590 5587 5584 5582 5581 5579 5577 5579 5580 5579 5578 5576 5575 5576 5577 5578 5576
5508 5513 5516 5520 5526 5533 5543 5554 5565 5575 5584 5590 5595 5596 5596 5595 5593 5592 5591 5590 5588 5586 5584 5582 5582 5583 5581 5580 5576 5576 5578 5575 5574 5573 5573 5575 5576 5575
5506 5511 5515 5519 5524 5531 5541 5551 5560 5569 5576 5583 5587 5588 5589 5589 5588 5587 5587 5586 5583 5580 5578 5578 5581 5583 5584 5583 5579 5575 5574 5575 5574 5573 5571 5570 5569 5567
5506 5510 5514 5519 5524 5531 5541 5550 5558 5565 5571 5576 5580 5581 5583 5584 5583 5582 5582 5578 5579 5578 5577 5577 5577 5577 5578 5578 5576 5573 5571 5571 5573 5572 5569 5567 5566 5565
5507 5511 5514 5519 5525 5531 5540 5548 5555 5561 5566 5571 5574 5576 5578 5579 5579 5578 5577 5576 5575 5576 5574 5571 5569 5572 5574 5575 5575 5573 5570 5567 5566 5566 5566 5566 5566 5565
5507 5512 5516 5521 5526 5532 5540 5547 5554 5559 5563 5568 5571 5572 5573 5574 5574 5573 5573 5572 5571 5570 5568 5565 5565 5567 5569 5570 5570 5569 5567 5565 5564 5562 5562 5562 5561 5561